OE5HCE Weather Reports


time (UTC)temp
C
wind
direction
speed
KPH
gust
KPH
rain 1hr
cm
rain 24hr
cm
rain mn
cm
humidity
%
barometer
mb
20260507144547 16 246 0.0 0.0 0.00 0.00 0.00 60 1014.2
20260507143049 16 242 0.0 0.0 0.00 0.00 0.00 59 1014.2
20260507141551 16 254 0.0 0.0 0.00 0.00 0.00 58 1014.3
20260507140047 16 260 0.0 0.0 0.00 0.00 0.00 57 1014.2
20260507134546 16 240 0.0 0.0 0.00 0.00 0.00 56 1014.2
20260507133045 16 266 0.0 0.0 0.00 0.00 0.00 55 1014.1
20260507131608 16 240 0.0 0.0 0.00 0.00 0.00 53 1014.1
20260507130044 17 221 0.0 0.0 0.00 0.00 0.00 54 1014.0
20260507124543 17 219 0.0 0.0 0.00 0.00 0.00 52 1013.9
20260507123043 17 263 0.0 0.0 0.00 0.00 0.00 54 1013.8
20260507121543 17 304 0.0 0.0 0.00 0.00 0.00 53 1013.7
20260507120042 17 221 0.0 0.0 0.00 0.00 0.00 55 1013.7
20260507114540 17 301 0.0 0.0 0.00 0.00 0.00 56 1013.9
20260507113036 17 232 0.0 0.0 0.00 0.00 0.00 56 1013.9
20260507111534 16 246 0.0 0.0 0.00 0.00 0.00 59 1014.1
20260507110034 16 240 0.0 0.0 0.00 0.00 0.00 59 1014.1
20260507104533 16 286 0.0 0.0 0.00 0.00 0.00 59 1014.2
20260507103034 16 242 0.0 0.0 0.00 0.00 0.00 56 1014.3
20260507101532 16 223 0.0 0.0 0.00 0.00 0.00 58 1014.3
20260507100034 16 247 0.0 0.0 0.00 0.00 0.00 57 1014.3
20260507094530 16 249 0.0 0.0 0.00 0.00 0.00 58 1014.4
20260507093027 16 229 0.0 0.0 0.00 0.00 0.00 59 1014.4
20260507091527 16 249 0.0 0.0 0.00 0.00 0.00 59 1014.2
20260507090023 16 178 0.0 0.0 0.00 0.00 0.00 61 1014.2
20260507084520 15 241 0.0 0.0 0.00 0.00 0.00 61 1014.0
20260507083018 15 311 0.0 0.0 0.00 0.00 0.00 61 1014.0
20260507081516 15 232 0.0 0.0 0.00 0.00 0.00 61 1013.9
20260507080013 15 224 0.0 0.0 0.00 0.00 0.00 62 1013.8
20260507074511 15 255 0.0 0.0 0.00 0.00 0.00 65 1013.8
20260507073007 14 277 0.0 0.0 0.00 0.00 0.00 65 1013.9
20260507071514 13 290 0.0 0.0 0.00 0.00 0.00 65 1013.8
20260507070009 13 234 0.0 0.0 0.00 0.00 0.00 65 1013.8
20260507064503 13 240 0.0 0.0 0.00 0.00 0.00 64 1013.5
20260507063101 13 304 0.0 0.0 0.00 0.00 0.00 67 1013.5
20260507061600 13 240 0.0 0.0 0.00 0.00 0.00 67 1013.5
20260507060057 13 298 0.0 0.0 0.00 0.00 0.00 67 1013.4
20260507054552 13 286 0.0 0.0 0.00 0.00 0.00 68 1013.2
20260507053115 12 242 0.0 0.0 0.00 0.00 0.00 70 1013.2
20260507051546 12 245 0.0 0.0 0.00 0.00 0.00 71 1013.0
20260507050045 11 248 0.0 0.0 0.00 0.00 0.00 72 1012.8
20260507044538 11 257 0.0 0.0 0.00 0.00 0.00 72 1012.7
20260507043037 11 261 0.0 0.0 0.00 0.00 0.00 73 1012.5
20260507041534 11 240 0.0 0.0 0.00 0.00 0.00 74 1012.3
20260507040031 11 229 0.0 0.0 0.00 0.00 0.00 74 1012.2
20260507034536 11 248 0.0 0.0 0.00 0.00 0.00 74 1012.1
20260507033038 11 267 0.0 0.0 0.00 0.00 0.00 75 1011.8
20260507031525 11 249 0.0 0.0 0.00 0.00 0.00 76 1011.7
20260507030027 11 248 0.0 0.0 0.00 0.00 0.00 76 1011.8
20260507024521 11 227 0.0 0.0 0.00 0.00 0.00 76 1011.7
20260507023025 11 255 0.0 0.0 0.00 0.00 0.00 74 1011.6
20260507021518 12 259 0.0 0.0 0.00 0.00 0.00 74 1011.6
20260507020022 12 277 0.0 0.0 0.00 0.00 0.00 73 1011.5
20260507014516 12 261 0.0 0.0 0.00 0.00 0.00 73 1011.4
20260507013013 12 263 0.0 0.0 0.00 0.00 0.00 73 1011.3
20260507011511 12 257 0.0 0.0 0.00 0.00 0.00 72 1011.3
20260507010018 12 274 0.0 0.0 0.00 0.00 0.00 71 1011.2
20260507004505 12 229 0.0 0.0 0.00 0.00 0.00 70 1011.2
20260507003002 12 248 0.0 0.0 0.00 0.00 0.00 70 1011.1
20260507001558 12 240 0.0 0.0 0.00 0.00 0.00 70 1011.0
20260507000054 12 240 0.0 0.0 0.00 0.00 0.00 71 1010.9
20260506234548 12 252 0.0 0.0 0.00 0.00 0.00 72 1011.0
20260506233047 12 279 0.0 0.0 0.00 0.00 0.00 73 1010.9
20260506231543 12 257 0.0 0.0 0.00 0.00 0.00 73 1010.9
20260506230041 12 234 0.0 0.0 0.00 0.00 0.00 74 1010.8
20260506224603 12 248 0.0 0.0 0.00 0.00 0.00 75 1010.5
20260506223037 12 259 0.0 0.0 0.00 0.00 0.00 76 1010.5
20260506221536 12 230 0.0 0.0 0.00 0.00 0.00 76 1010.4
20260506220039 12 219 0.0 0.0 0.00 0.00 0.00 76 1010.1
20260506214531 12 247 0.0 0.0 0.00 0.00 0.00 76 1010.0
20260506213032 12 277 0.0 0.0 0.00 0.00 0.00 77 1010.0
20260506211532 12 251 0.0 0.0 0.00 0.00 0.00 76 1009.9
20260506210130 13 237 0.0 0.0 0.00 0.00 0.00 77 1009.8
20260506204527 13 254 0.0 0.0 0.00 0.00 0.00 77 1009.6
20260506203028 13 236 0.0 0.0 0.00 0.00 0.00 77 1009.3
20260506201524 13 291 0.0 0.0 0.00 0.00 0.00 77 1009.0
20260506200123 14 241 0.0 0.0 0.00 0.00 0.00 77 1008.7
20260506194522 14 265 0.0 0.0 0.00 0.00 0.00 77 1008.3
20260506193021 15 293 0.0 0.0 0.00 0.00 0.00 77 1008.1
20260506191520 15 225 0.0 0.0 0.00 0.00 0.00 75 1007.6
20260506190025 15 256 0.0 0.0 0.00 0.00 0.00 72 1007.2
20260506184518 15 238 0.0 0.0 0.00 0.15 0.00 70 1006.7
20260506183020 15 259 0.0 0.0 0.00 0.15 0.00 69 1006.2
20260506181517 15 236 0.0 0.0 0.00 0.15 0.00 69 1005.7
20260506180016 16 288 0.0 0.0 0.00 0.15 0.00 66 1004.8
20260506174515 18 254 0.0 0.0 0.00 0.23 0.00 54 1004.5
20260506173015 21 204 0.0 0.0 0.00 0.23 0.00 47 1002.5
20260506171520 21 184 0.0 0.0 0.00 0.23 0.00 47 1001.8
20260506170015 22 126 0.0 0.0 0.00 0.23 0.00 43 1001.5
20260506164513 23 287 0.0 0.0 0.00 0.23 0.00 42 1001.4
20260506163011 24 210 0.0 0.0 0.00 0.23 0.00 42 1002.1
20260506161509 23 155 0.0 0.0 0.00 0.23 0.00 42 1002.1
20260506160010 23 175 0.0 0.0 0.00 0.23 0.00 44 1002.1
20260506154506 24 281 0.0 0.0 0.00 0.23 0.00 42 1002.4
20260506153009 23 196 0.0 0.0 0.00 0.23 0.00 43 1002.3
20260506151504 23 80 0.0 0.0 0.00 0.23 0.00 45 1002.6
20260506150003 23 156 0.0 0.0 0.00 0.23 0.00 46 1002.8